Vertical_Velocity
2 2 1 3 4 3 -1 0 1 -0 -4 -2 -3 -4 -5 -4 -5 -6 -5 -3 -1 -0 1 0 -0 -1 -3 -3 -4 -4 -4 -4 -4 -4 -4 -4 -4 -4 -4 -4 -4 -3 -3 -3 -3 -3 -3 -4 -4 -4 -4 -3 -3 -3 -2 -2 -1 -1 -1 -1 -2 -2 -2 -2 -2 -2 -2 -2 -2 -2 -2 -2 -2 -3 -3 -2 -2 -2 -2 -2 -1 -1 -2 -2 -2 -2
0 1 0 1 3 4 -0 -1 1 1 -2 -3 -3 -3 -3 -2 -3 -3 -2 -1 -0 0 -0 -2 -2 -2 -3 -4 -4 -4 -4 -4 -4 -4 -4 -4 -4 -4 -4 -4 -4 -4 -4 -3 -3 -3 -3 -4 -4 -4 -4 -4 -3 -3 -3 -2 -2 -2 -1 -2 -2 -2 -2 -3 -3 -3 -3 -3 -3 -3 -3 -3 -3 -2 -2 -2 -2 -2 -2 -2 -1 -1 -1 -1 -1 -1
-1 -2 -2 0 3 5 2 -1 -1 -0 -0 -3 -3 -2 0 1 1 1 2 0 -1 -1 -1 -2 -3 -3 -3 -3 -3 -4 -4 -4 -4 -4 -4 -4 -4 -4 -3 -3 -3 -3 -3 -3 -3 -3 -3 -4 -4 -4 -4 -3 -3 -3 -3 -3 -3 -3 -3 -3 -3 -3 -3 -3 -3 -3 -3 -3 -3 -3 -3 -3 -3 -3 -2 -2 -2 -2 -2 -2 -2 -2 -2 -1 -1 -1
1 -2 -3 0 2 3 3 1 -1 -3 -2 -3 -3 -2 2 4 4 3 4 3 1 -2 -3 -2 -2 -2 -2 -2 -2 -3 -3 -4 -3 -3 -3 -3 -3 -3 -3 -3 -3 -3 -3 -3 -3 -4 -4 -4 -4 -4 -4 -3 -3 -3 -3 -4 -4 -4 -4 -4 -4 -4 -3 -3 -3 -3 -3 -3 -3 -3 -2 -2 -2 -2 -2 -2 -2 -2 -2 -2 -3 -3 -2 -2 -2 -2
0 -1 -2 3 3 1 -1 0 -1 -3 -4 -2 -1 0 2 4 4 3 3 3 2 0 -2 -2 -1 -1 -1 -1 -2 -2 -3 -3 -3 -3 -3 -3 -3 -3 -3 -3 -3 -3 -3 -3 -4 -4 -4 -4 -4 -4 -4 -4 -4 -4 -4 -4 -5 -5 -5 -5 -5 -4 -4 -4 -3 -3 -2 -2 -2 -1 -1 -1 -1 -1 -1 -1 -1 -1 -1 -2 -2 -2 -2 -2 -2 -2
-2 -1 -0 3 4 2 -1 -2 -2 -2 -2 -2 1 3 4 3 3 3 2 2 2 1 0 0 -0 -0 -1 -1 -2 -2 -3 -2 -2 -3 -3 -3 -3 -3 -3 -3 -3 -3 -3 -4 -4 -4 -4 -5 -5 -5 -5 -4 -4 -4 -5 -5 -5 -6 -6 -6 -6 -5 -5 -4 -3 -3 -2 -1 -1 -1 -0 -0 0 0 1 1 1 1 0 -0 -1 -1 -1 -1 -1 -1
-1 0 3 2 2 1 2 -1 -1 0 2 1 1 2 3 3 3 3 2 2 2 2 1 1 1 1 -1 -2 -3 -3 -3 -3 -3 -3 -3 -3 -4 -4 -3 -3 -3 -3 -4 -4 -4 -4 -5 -5 -5 -5 -5 -5 -5 -5 -5 -6 -6 -6 -7 -7 -6 -6 -5 -4 -3 -3 -2 -1 -1 -0 0 1 1 2 2 2 2 2 1 1 1 0 0 1 0 -0
-0 -0 3 3 1 -1 1 2 1 1 2 2 2 2 0 1 2 2 2 2 3 3 2 2 2 2 -0 -3 -5 -5 -3 -3 -4 -5 -4 -4 -4 -4 -4 -4 -3 -3 -4 -4 -4 -5 -5 -6 -6 -6 -6 -6 -6 -6 -6 -7 -7 -7 -7 -7 -7 -6 -6 -5 -4 -3 -2 -1 -1 0 1 2 2 3 3 3 3 2 2 2 2 2 2 2 1 1
3 1 0 3 4 4 2 0 0 1 1 1 2 3 2 -0 0 2 4 2 2 3 4 4 3 1 -0 -3 -5 -7 -7 -4 -3 -4 -5 -4 -4 -4 -4 -4 -4 -4 -4 -5 -5 -5 -6 -6 -6 -6 -6 -6 -6 -7 -7 -7 -7 -8 -8 -8 -7 -7 -6 -5 -5 -4 -3 -2 -1 0 1 2 3 3 3 3 3 2 2 2 2 2 2 2 2 1
2 3 2 2 5 7 8 1 -3 -4 0 -0 -0 1 4 2 1 1 4 3 2 2 4 6 5 3 -2 -3 -5 -6 -8 -7 -4 -2 -3 -4 -4 -3 -3 -3 -3 -4 -4 -5 -5 -6 -7 -7 -6 -6 -6 -6 -6 -6 -7 -8 -8 -8 -8 -8 -8 -7 -7 -6 -5 -4 -3 -2 -1 -0 1 2 3 3 3 3 3 2 2 2 2 2 2 2 2 2
-1 1 5 3 2 3 6 3 -1 -3 -1 -1 -3 -4 -1 2 3 3 3 4 4 4 3 4 6 5 1 -4 -6 -6 -5 -6 -6 -5 -3 -4 -3 -3 -4 -3 -2 -3 -4 -4 -4 -5 -6 -6 -5 -5 -5 -6 -6 -7 -7 -9 -9 -9 -9 -9 -9 -8 -8 -7 -5 -4 -3 -2 -1 -0 0 1 1 2 2 2 2 1 1 1 1 1 2 2 2 2
-0 0 3 3 2 1 0 -2 -3 -3 -1 -0 -2 -5 -7 -3 1 4 4 3 5 6 5 4 5 5 4 -1 -5 -6 -3 -3 -3 -3 -3 -4 -4 -4 -5 -4 -4 -3 -4 -4 -4 -4 -5 -7 -5 -4 -3 -6 -7 -8 -8 -10 -11 -10 -10 -10 -9 -8 -7 -6 -5 -4 -3 -2 -1 -1 -0 0 0 0 0 0 -0 -0 -0 -0 0 0 1 1 2 2
-0 2 3 3 2 1 -0 -2 -4 -4 -3 -1 0 -1 -4 -4 -1 2 2 2 3 6 7 6 6 5 3 1 -2 -4 -3 -2 -1 1 1 -2 -4 -5 -6 -6 -4 -4 -5 -6 -5 -3 -3 -6 -6 -4 -2 -6 -9 -9 -8 -11 -11 -11 -11 -10 -9 -7 -6 -5 -4 -3 -2 -2 -1 -1 -1 -1 -1 -1 -1 -2 -2 -2 -2 -2 -2 -1 -0 0 1 1
-0 1 3 2 0 -2 -2 -2 -2 -2 -3 -1 -0 0 -0 -0 1 2 1 0 1 4 7 7 7 7 5 1 -2 -3 -2 -1 -0 1 2 1 -2 -4 -8 -8 -4 -1 -1 -6 -6 -3 1 -3 -6 -5 -1 -5 -8 -10 -10 -11 -11 -10 -10 -9 -7 -6 -5 -3 -3 -2 -2 -2 -2 -2 -2 -2 -2 -2 -3 -3 -3 -4 -4 -3 -3 -3 -2 -1 -0 0
2 2 1 -0 -2 -3 -3 -2 -2 -2 -2 -1 -0 -0 -0 -0 1 2 3 0 -0 2 6 5 5 7 9 4 -2 -6 -5 -1 3 5 2 -1 -2 -2 -5 -10 -6 -0 4 -3 -5 -3 3 1 -3 -4 -2 -4 -6 -8 -10 -11 -10 -9 -8 -7 -6 -5 -4 -2 -2 -1 -1 -2 -2 -2 -3 -3 -3 -3 -4 -4 -4 -4 -5 -5 -4 -4 -3 -2 -1 -1
1 2 1 -1 -2 -3 -3 -0 0 -1 -3 -2 -0 1 2 -1 -1 1 5 2 1 2 5 5 4 4 5 5 1 -4 -8 -7 1 9 10 -1 -3 -1 1 -8 -7 -1 7 2 -2 -3 1 1 0 -1 -2 -4 -6 -8 -9 -9 -9 -8 -7 -6 -5 -4 -2 -1 -1 -0 -1 -1 -2 -2 -3 -3 -3 -4 -4 -4 -5 -5 -5 -5 -5 -5 -4 -3 -2 -1
1 1 -0 0 -1 -2 -3 0 1 0 -1 -2 -1 0 3 2 1 1 3 3 2 2 1 5 7 7 5 2 -0 -2 -3 -9 -6 3 14 4 -1 -1 4 -3 -4 1 8 5 2 0 1 1 1 1 -1 -3 -5 -7 -9 -9 -8 -7 -6 -5 -4 -3 -1 -0 0 0 -0 -1 -1 -2 -3 -3 -3 -4 -4 -4 -5 -5 -5 -5 -5 -5 -4 -4 -3 -2
1 2 0 0 0 -0 1 1 -0 -2 -2 -1 -1 -1 -0 1 3 3 2 3 4 3 -1 1 5 8 11 5 -3 -6 2 -3 -6 -3 11 6 2 1 3 -0 -0 3 8 5 3 2 3 2 2 1 -2 -3 -5 -6 -8 -8 -7 -7 -6 -5 -4 -2 -1 0 0 0 -0 -1 -1 -2 -2 -3 -3 -3 -4 -4 -4 -5 -5 -5 -5 -5 -4 -4 -3 -2
0 2 3 1 -0 0 2 2 1 -1 -2 -1 0 1 0 -1 1 4 2 2 3 3 2 1 1 3 11 6 -2 -6 3 -1 -4 -2 9 6 3 3 5 2 1 3 9 6 3 2 2 3 2 1 -2 -4 -6 -7 -7 -7 -7 -7 -6 -5 -4 -3 -1 -1 -0 -0 -1 -1 -1 -1 -2 -2 -3 -3 -4 -4 -4 -4 -5 -5 -5 -4 -4 -4 -3 -2
1 1 3 2 1 -0 0 0 0 -0 -0 -1 2 4 3 1 2 4 3 2 1 0 3 5 3 1 6 3 -2 -5 -0 -2 -5 -3 6 6 4 2 5 2 2 4 9 6 4 2 2 2 2 0 -3 -6 -7 -7 -7 -7 -7 -6 -6 -5 -4 -3 -2 -2 -2 -2 -2 -2 -2 -2 -2 -2 -3 -3 -3 -4 -4 -4 -4 -4 -4 -4 -4 -3 -3 -2
1 -1 -2 2 3 2 -0 -1 -1 -0 -0 -0 1 2 2 3 3 3 3 4 1 -1 1 5 3 1 4 2 -2 -4 -0 -2 -5 -5 3 6 6 5 4 1 2 5 9 7 5 3 2 1 1 -1 -5 -7 -8 -8 -7 -6 -6 -6 -5 -4 -3 -3 -3 -3 -3 -3 -3 -2 -2 -2 -2 -3 -3 -3 -3 -3 -4 -4 -4 -4 -4 -4 -3 -3 -2 -2
1 -1 -4 -0 2 3 1 1 -0 -0 0 2 2 1 0 3 3 2 1 3 2 -0 1 3 3 3 4 1 -2 -3 2 -1 -4 -4 0 4 7 8 6 2 2 5 9 7 5 3 3 2 -0 -3 -6 -8 -8 -8 -7 -6 -5 -5 -4 -3 -3 -3 -3 -4 -4 -4 -3 -3 -3 -3 -3 -3 -3 -3 -3 -3 -3 -4 -4 -4 -4 -4 -3 -3 -2 -1
0 -0 -1 -1 -0 0 1 1 0 -1 -0 2 2 1 1 4 5 4 2 3 2 1 2 3 4 4 4 1 -2 -3 -0 -2 -4 -4 -0 2 6 9 8 3 3 5 8 6 4 3 5 3 -0 -5 -7 -8 -8 -8 -7 -6 -5 -4 -3 -2 -2 -3 -4 -4 -4 -4 -3 -3 -3 -3 -3 -3 -3 -3 -3 -3 -3 -3 -4 -4 -4 -4 -3 -3 -2 -2
-1 -1 -1 -0 -1 -1 -0 0 0 -0 -0 1 1 1 1 3 4 4 3 3 2 2 3 5 4 3 3 3 0 -3 -2 -2 -3 -4 -1 2 6 8 7 3 3 4 6 5 4 3 5 4 -0 -5 -7 -8 -8 -8 -8 -6 -5 -3 -2 -2 -3 -4 -4 -4 -4 -3 -3 -3 -3 -3 -3 -3 -3 -3 -3 -3 -3 -3 -3 -3 -3 -4 -4 -3 -3 -2
-1 -0 -1 -1 -1 -0 0 0 1 1 1 1 0 -0 0 1 2 2 1 1 1 1 2 5 4 3 2 4 2 -1 -2 -3 -4 -4 -2 2 6 8 6 2 1 3 5 5 4 4 5 3 -0 -4 -6 -7 -8 -8 -8 -7 -5 -4 -3 -3 -4 -4 -5 -4 -4 -3 -3 -3 -3 -3 -3 -3 -3 -3 -3 -3 -3 -3 -2 -3 -3 -3 -3 -3 -3 -2
-1 -0 -0 -1 -0 -0 1 1 1 2 2 2 2 1 1 1 1 1 0 -1 -2 -1 -0 2 3 3 3 3 1 -1 -3 -4 -4 -4 -2 1 5 8 6 1 -0 1 3 5 5 5 5 3 -0 -3 -4 -6 -7 -8 -8 -7 -6 -5 -4 -4 -5 -5 -5 -5 -4 -3 -3 -3 -3 -3 -3 -3 -3 -3 -3 -3 -3 -3 -2 -2 -3 -3 -3 -3 -3 -3
-2 -2 -1 -0 0 1 2 2 2 2 1 1 1 1 2 1 1 1 1 -1 -2 -3 -2 -0 0 1 3 3 1 -2 -4 -6 -5 -4 -1 2 5 7 4 1 -0 -0 2 5 6 6 5 3 0 -1 -2 -4 -6 -7 -7 -7 -6 -6 -5 -6 -6 -6 -6 -5 -5 -4 -4 -4 -4 -4 -4 -4 -3 -3 -3 -3 -3 -3 -3 -3 -3 -3 -3 -3 -3 -3
-0 -0 0 1 2 2 3 3 3 2 1 0 -0 0 1 1 0 -0 1 1 -0 -2 -1 -0 -0 0 3 3 2 -1 -5 -7 -6 -3 0 3 5 5 2 0 -1 -1 1 5 8 8 6 2 0 -0 0 -2 -4 -5 -6 -6 -5 -5 -5 -6 -6 -6 -6 -5 -4 -4 -4 -4 -4 -4 -4 -4 -3 -3 -3 -3 -3 -3 -3 -3 -3 -3 -3 -3 -3 -2
2 2 2 3 4 4 4 4 3 2 1 0 -0 -0 1 1 -0 -1 0 2 1 -0 0 1 0 0 2 3 3 0 -4 -7 -7 -3 1 4 4 3 1 -0 -2 -2 -1 5 9 11 8 2 -1 -0 2 0 -1 -3 -4 -4 -3 -3 -4 -4 -5 -6 -6 -5 -4 -3 -3 -3 -3 -3 -3 -3 -3 -2 -2 -2 -2 -3 -3 -3 -3 -3 -3 -2 -2 -2
1 2 1 3 4 5 4 3 3 2 1 0 -0 -0 0 0 -1 -1 -0 1 0 -0 0 1 1 1 1 3 3 2 -3 -8 -7 -4 1 4 3 2 1 0 -2 -3 -3 3 9 13 12 5 0 -2 0 0 -0 -2 -2 -2 -2 -2 -2 -3 -4 -5 -6 -5 -4 -3 -3 -3 -3 -3 -3 -2 -2 -1 -1 -1 -1 -2 -2 -3 -3 -3 -3 -2 -2 -2
-1 1 0 0 1 2 2 2 1 1 0 -0 -0 -1 -1 -0 -1 -1 -1 -0 -0 -0 1 1 1 1 1 2 2 2 -2 -6 -7 -4 0 3 3 2 2 2 -0 -3 -4 -0 5 11 15 11 6 0 -2 -1 -1 -2 -3 -2 -2 -2 -1 -1 -2 -4 -6 -5 -5 -4 -3 -3 -3 -3 -3 -3 -2 -1 -0 -0 -0 -1 -1 -2 -2 -3 -2 -2 -2 -1
-1 -1 -0 -1 -1 -0 -0 -0 -0 -1 -1 -1 -1 -1 -1 -1 -1 -1 -1 -0 -0 0 1 1 1 1 0 0 0 -0 -2 -5 -6 -4 -0 3 3 3 3 3 2 -0 -3 -1 1 6 11 14 11 7 2 -1 -3 -4 -4 -3 -2 -2 -1 -0 -1 -3 -5 -5 -5 -4 -4 -4 -4 -4 -5 -4 -3 -2 -1 -0 0 -0 -0 -1 -2 -2 -2 -1 -1 -1
-1 -1 -1 -1 -2 -2 -2 -2 -2 -2 -2 -2 -2 -2 -2 -2 -2 -2 -1 -1 -0 0 1 1 0 -0 -1 -1 -1 -2 -4 -5 -5 -3 -0 2 4 4 3 3 2 1 1 0 0 2 5 9 11 10 7 2 -1 -4 -5 -4 -3 -2 -0 0 -0 -1 -3 -4 -4 -4 -3 -3 -4 -5 -5 -5 -4 -3 -2 -1 -0 0 0 -0 -1 -1 -1 -1 -1 -0
-1 -1 -2 -2 -2 -3 -3 -3 -3 -3 -3 -3 -3 -3 -3 -3 -2 -2 -2 -1 -0 -0 -0 -0 -0 -1 -1 -1 -2 -3 -5 -6 -6 -4 -1 2 4 5 5 4 2 2 3 3 2 2 2 4 5 7 8 5 1 -3 -5 -4 -3 -1 -0 1 1 0 -1 -2 -2 -2 -2 -2 -3 -4 -5 -5 -5 -4 -4 -3 -2 -1 -0 -0 -0 -0 -1 -0 -0 -0
-1 -1 -2 -3 -3 -3 -3 -4 -4 -4 -4 -3 -3 -3 -3 -3 -2 -2 -2 -1 -1 -1 -1 -1 -1 -1 -1 -1 -1 -2 -3 -5 -6 -4 -2 1 3 4 5 3 2 2 3 3 3 3 3 2 2 3 5 5 3 -1 -5 -5 -3 -2 -0 1 1 1 -0 -1 -1 -0 -0 -1 -2 -3 -4 -4 -4 -4 -4 -4 -3 -2 -1 -0 0 0 0 0 0 0
-2 -2 -2 -3 -4 -4 -4 -4 -4 -4 -3 -3 -3 -3 -2 -2 -2 -2 -2 -1 -1 -1 -1 -2 -2 -2 -2 -1 0 0 -0 -2 -3 -3 -2 -0 2 3 4 3 2 1 1 2 2 3 3 3 3 2 3 4 4 2 -1 -3 -3 -2 -1 -0 0 -0 -1 -1 -0 0 1 0 -0 -2 -3 -4 -4 -4 -4 -4 -4 -3 -3 -1 -0 0 1 1 1 0
-3 -3 -3 -4 -4 -4 -4 -4 -4 -4 -3 -3 -2 -2 -2 -2 -2 -2 -2 -1 -1 -1 -2 -2 -3 -4 -3 -2 -1 0 1 0 -1 -1 -2 -1 1 2 3 2 1 0 -0 -0 -0 1 1 2 3 3 3 4 4 4 2 0 -0 0 0 1 0 -0 -1 -1 -1 0 1 2 1 0 -1 -2 -3 -3 -3 -4 -4 -4 -4 -3 -2 -0 1 1 1 1
-4 -3 -3 -4 -4 -4 -4 -4 -4 -3 -3 -3 -2 -2 -2 -2 -2 -2 -2 -2 -1 -2 -2 -3 -4 -4 -5 -4 -3 -2 -1 -0 -1 -1 -2 -1 -0 1 2 2 1 -0 -1 -2 -2 -2 -1 -0 1 2 3 4 5 4 2 1 1 2 4 4 3 1 -1 -1 -1 1 2 3 3 3 2 1 -0 -1 -2 -3 -3 -4 -4 -4 -3 -2 -1 1 1 2
-4 -4 -4 -4 -4 -4 -4 -4 -4 -3 -3 -2 -2 -2 -2 -2 -2 -2 -2 -2 -1 -1 -1 -2 -3 -4 -4 -5 -4 -4 -3 -2 -2 -2 -2 -2 -2 -1 -0 0 0 -0 -1 -2 -3 -4 -4 -3 -2 -1 0 3 4 5 3 0 -0 1 4 6 6 5 1 -1 -1 0 2 3 4 4 4 3 3 2 1 -1 -2 -2 -3 -3 -3 -2 -2 -1 0 1
-4 -4 -4 -4 -4 -4 -4 -4 -3 -3 -3 -2 -2 -2 -2 -2 -2 -3 -3 -2 -2 -1 -1 -1 -1 -2 -3 -4 -4 -4 -4 -4 -4 -3 -3 -3 -2 -2 -1 -1 -0 -0 -1 -1 -3 -4 -5 -5 -4 -4 -2 -0 2 4 3 0 -2 -2 1 5 8 9 5 2 -1 -1 1 2 3 4 4 4 4 4 2 1 -0 -1 -1 -2 -2 -2 -2 -1 0 1
-5 -4 -4 -4 -4 -4 -3 -3 -3 -3 -2 -2 -2 -2 -2 -2 -2 -3 -3 -3 -3 -2 -1 -0 -1 -2 -4 -5 -5 -5 -5 -5 -5 -4 -4 -3 -3 -3 -2 -2 -1 -1 -0 -0 -1 -3 -4 -5 -5 -5 -4 -3 -0 1 2 0 -2 -3 -3 1 6 9 9 5 1 -1 -1 1 1 2 3 4 4 4 3 2 1 -0 -0 -0 -1 -1 -2 -1 0 1
-4 -4 -4 -4 -4 -3 -3 -3 -2 -2 -2 -2 -1 -1 -1 -1 -1 -1 -2 -3 -3 -3 -2 -1 -0 -1 -3 -6 -7 -8 -7 -7 -6 -5 -4 -4 -3 -3 -3 -3 -2 -1 -0 0 -0 -1 -2 -4 -4 -5 -4 -3 -2 -1 0 -0 -1 -3 -4 -2 1 5 9 6 3 -0 -1 -1 -1 -0 1 2 3 4 3 2 1 -0 -0 0 0 0 -0 -0 0 1
-4 -4 -4 -3 -3 -3 -2 -2 -2 -2 -2 -2 -2 -1 -1 -0 0 0 -0 -1 -1 -2 -1 -1 0 0 -1 -3 -6 -8 -9 -9 -8 -6 -5 -4 -3 -3 -3 -2 -2 -1 -0 0 0 0 -0 -2 -3 -4 -5 -3 -2 -1 -1 -0 -0 -1 -3 -3 -2 1 4 4 3 1 -0 -1 -2 -2 -1 1 2 3 3 2 1 -0 -0 -0 0 0 1 1 1 2
-3 -3 -3 -3 -3 -3 -3 -3 -2 -2 -2 -2 -2 -2 -1 -0 0 1 1 1 0 -0 0 0 1 1 1 -1 -2 -4 -7 -9 -9 -8 -6 -4 -3 -2 -2 -2 -2 -1 -0 0 0 0 0 -0 -2 -3 -3 -3 -2 -2 -2 -1 -0 0 -0 -1 -1 -1 0 1 1 1 1 -0 -2 -3 -3 -2 0 2 2 2 1 -0 -1 -1 -1 -0 0 1 2 2
-3 -3 -3 -3 -3 -2 -2 -2 -3 -2 -2 -2 -2 -2 -1 -1 0 1 2 1 1 1 1 1 1 2 1 0 0 -1 -3 -6 -8 -9 -8 -6 -4 -3 -2 -1 -1 -1 -0 -0 0 0 -0 -1 -1 -2 -2 -1 -1 -2 -2 -3 -2 -0 1 0 -0 -1 -2 -2 -2 -2 -0 -1 -1 -2 -3 -3 -1 0 1 1 0 -1 -2 -2 -2 -1 -1 0 1 2
-3 -3 -3 -3 -2 -2 -2 -2 -2 -2 -2 -2 -2 -2 -1 -1 -0 1 1 2 2 1 1 1 2 2 1 1 1 1 1 -2 -5 -7 -8 -7 -6 -5 -3 -2 -1 -1 -0 -0 -0 -0 -0 -1 -2 -2 -2 -1 0 0 -1 -3 -4 -3 -1 0 0 -0 -2 -3 -3 -3 -3 -2 -2 -3 -3 -3 -2 -0 1 1 0 -1 -2 -3 -2 -2 -1 -0 1 2
-3 -2 -2 -2 -2 -2 -2 -2 -2 -2 -2 -3 -3 -2 -2 -1 -0 0 0 1 1 1 0 0 1 1 1 1 2 2 3 2 -0 -2 -4 -5 -5 -5 -5 -4 -3 -2 -1 -0 -0 -0 -0 -2 -3 -4 -4 -2 -0 1 -1 -3 -5 -5 -3 -2 -1 -0 -0 -1 -2 -3 -2 -2 -2 -2 -2 -2 -2 -0 1 2 1 -0 -2 -4 -4 -3 -2 -1 0 1
-2 -2 -2 -2 -2 -2 -2 -2 -2 -2 -2 -3 -3 -3 -2 -1 -0 0 -0 -0 -0 0 0 0 0 0 -0 -0 0 1 2 3 2 1 -0 -1 -2 -3 -4 -4 -3 -3 -2 -1 -1 -0 -0 -1 -3 -5 -7 -5 -3 -1 -1 -2 -4 -5 -5 -3 -1 -0 1 1 0 -0 -0 0 0 0 0 0 1 1 2 2 2 1 -2 -4 -5 -5 -4 -2 -0 1
-1 -1 -1 -1 -1 -1 -2 -2 -2 -2 -2 -2 -3 -3 -3 -2 -1 -0 0 -0 -0 -0 -0 0 0 0 0 -0 -0 0 1 1 1 1 1 1 0 -0 -1 -1 -1 -1 -1 -0 -0 0 0 -1 -3 -6 -8 -7 -5 -3 -2 -2 -3 -3 -3 -2 -1 0 2 3 3 2 2 2 2 2 2 3 3 3 3 4 3 2 -0 -3 -5 -6 -5 -3 -1 0
-1 -0 -0 -0 -1 -1 -1 -1 -1 -1 -2 -2 -2 -2 -3 -3 -2 -2 -1 -0 -0 -0 -0 0 1 1 1 1 0 0 0 0 -0 -0 -0 0 1 1 1 1 2 2 2 3 3 3 4 3 -0 -5 -9 -9 -6 -4 -3 -2 -2 -1 -1 -0 -0 1 2 3 4 4 4 3 3 3 3 3 3 4 4 4 4 4 2 -1 -4 -6 -6 -3 -1 0
-1 -1 -0 -0 -1 -1 -1 -1 -1 -1 -1 -1 -1 -2 -2 -3 -3 -3 -2 -1 -1 -1 -1 -0 0 1 1 1 1 1 0 -0 -0 -0 -1 -0 0 1 1 1 2 3 4 5 6 7 8 9 7 3 -3 -8 -7 -5 -3 -4 -3 -1 1 1 1 1 1 2 3 4 4 3 3 3 3 4 4 4 4 4 4 4 3 0 -3 -6 -6 -3 -1 -0
Height
5662 5661 5660 5659 5657 5656 5654 5652 5650 5648 5646 5644 5643 5641 5639 5637 5634 5633 5631 5629 5628 5626 5625 5623 5621 5619 5617 5615 5614 5612 5610 5609 5607 5605 5603 5602 5600 5598 5597 5595 5593 5592 5590 5589 5587 5585 5584 5582 5581 5579 5578 5577 5575 5574 5573 5572 5570 5569 5567 5565 5564 5562 5560 5559 5557 5555 5553 5551 5549 5547 5545 5543 5541 5539 5538 5536 5534 5533 5531 5530 5529 5527 5526 5525 5524 5523
5659 5657 5656 5655 5654 5652 5649 5647 5646 5644 5641 5639 5638 5636 5634 5632 5629 5627 5625 5624 5622 5620 5619 5617 5615 5613 5611 5609 5607 5605 5604 5602 5600 5598 5597 5595 5593 5591 5589 5588 5586 5584 5583 5581 5580 5578 5577 5575 5574 5572 5571 5569 5568 5567 5565 5564 5563 5561 5559 5558 5556 5554 5552 5550 5548 5546 5544 5542 5540 5538 5535 5534 5531 5529 5528 5526 5524 5522 5521 5519 5518 5517 5515 5514 5513 5513
5655 5654 5652 5651 5649 5647 5645 5642 5640 5639 5637 5635 5633 5631 5629 5627 5624 5622 5620 5618 5616 5614 5612 5610 5609 5606 5604 5602 5600 5599 5597 5595 5593 5592 5590 5588 5586 5584 5583 5581 5579 5578 5576 5574 5573 5571 5569 5568 5566 5565 5563 5562 5560 5559 5558 5556 5554 5553 5551 5549 5548 5546 5544 5542 5539 5537 5535 5533 5530 5528 5526 5524 5521 5519 5517 5515 5514 5512 5510 5509 5507 5506 5505 5504 5504 5503
5651 5649 5648 5646 5644 5642 5640 5638 5635 5633 5631 5629 5628 5626 5624 5622 5620 5617 5615 5613 5610 5608 5606 5604 5602 5600 5598 5596 5594 5592 5590 5589 5587 5585 5583 5581 5579 5578 5576 5574 5572 5571 5569 5567 5565 5564 5562 5560 5559 5557 5556 5554 5553 5551 5550 5548 5546 5544 5543 5541 5539 5537 5535 5533 5530 5528 5526 5524 5521 5519 5516 5514 5512 5510 5508 5506 5504 5502 5500 5499 5497 5496 5495 5494 5494 5493
5647 5645 5643 5641 5639 5637 5634 5633 5630 5628 5626 5624 5623 5621 5619 5617 5614 5612 5610 5608 5605 5603 5600 5598 5596 5594 5592 5589 5588 5586 5584 5582 5580 5578 5577 5575 5573 5571 5569 5567 5565 5564 5562 5560 5558 5556 5554 5553 5551 5549 5548 5546 5545 5543 5541 5539 5538 5536 5534 5532 5530 5528 5526 5524 5521 5519 5517 5514 5512 5510 5508 5505 5503 5501 5499 5497 5495 5493 5491 5489 5488 5487 5486 5485 5484 5484
5642 5640 5638 5636 5634 5631 5629 5627 5625 5623 5621 5619 5617 5616 5614 5611 5609 5607 5604 5602 5599 5597 5594 5592 5589 5587 5585 5583 5581 5579 5577 5575 5574 5572 5570 5568 5566 5564 5562 5560 5559 5556 5554 5552 5550 5549 5547 5545 5543 5541 5540 5538 5536 5534 5533 5531 5529 5527 5525 5523 5521 5519 5517 5514 5512 5510 5508 5506 5503 5501 5499 5496 5494 5492 5490 5488 5486 5484 5482 5480 5479 5478 5477 5476 5475 5474
5637 5635 5633 5630 5628 5626 5624 5622 5620 5618 5616 5614 5612 5610 5608 5606 5604 5601 5599 5596 5594 5591 5589 5586 5583 5581 5579 5576 5574 5572 5571 5569 5567 5565 5563 5561 5559 5557 5555 5553 5551 5549 5547 5545 5543 5541 5539 5537 5535 5533 5531 5529 5528 5526 5524 5522 5520 5518 5516 5514 5512 5510 5508 5506 5504 5501 5499 5497 5495 5492 5490 5488 5485 5483 5481 5479 5477 5474 5473 5471 5470 5469 5467 5466 5465 5464
5631 5629 5627 5626 5624 5621 5619 5617 5615 5613 5611 5609 5607 5605 5603 5600 5598 5596 5594 5591 5588 5586 5583 5580 5577 5574 5572 5569 5567 5565 5564 5562 5560 5558 5556 5554 5552 5550 5548 5546 5544 5542 5539 5537 5535 5533 5531 5529 5527 5525 5523 5521 5519 5517 5515 5513 5511 5509 5507 5505 5503 5501 5499 5497 5495 5493 5491 5489 5486 5484 5481 5479 5476 5474 5472 5469 5467 5465 5463 5462 5460 5459 5458 5457 5456 5455
5626 5624 5622 5621 5619 5617 5614 5611 5609 5607 5605 5603 5601 5599 5597 5595 5593 5590 5588 5585 5583 5580 5578 5575 5572 5568 5565 5562 5560 5559 5557 5555 5554 5552 5550 5548 5545 5543 5541 5539 5537 5534 5532 5530 5528 5525 5523 5521 5519 5517 5514 5512 5510 5508 5506 5504 5502 5500 5499 5496 5494 5493 5491 5489 5487 5485 5483 5480 5478 5475 5473 5470 5468 5465 5463 5460 5458 5456 5454 5452 5451 5449 5448 5447 5446 5445
5621 5620 5618 5615 5614 5612 5609 5606 5603 5600 5599 5596 5594 5593 5591 5589 5587 5585 5582 5580 5577 5574 5572 5570 5567 5563 5559 5555 5553 5552 5551 5549 5547 5545 5544 5541 5539 5536 5534 5532 5530 5527 5525 5522 5520 5518 5515 5513 5511 5509 5506 5504 5502 5499 5498 5496 5494 5492 5490 5489 5487 5485 5483 5481 5479 5477 5474 5472 5469 5466 5464 5461 5459 5456 5454 5451 5449 5447 5445 5443 5441 5440 5439 5438 5437 5436
5616 5615 5613 5610 5608 5605 5603 5600 5597 5594 5592 5590 5588 5586 5584 5583 5582 5579 5577 5574 5572 5569 5567 5564 5561 5558 5554 5550 5546 5545 5544 5543 5541 5538 5536 5534 5532 5530 5528 5525 5523 5520 5518 5515 5513 5510 5507 5505 5503 5500 5498 5496 5494 5491 5489 5488 5486 5484 5483 5481 5479 5478 5476 5474 5471 5469 5466 5464 5461 5458 5455 5453 5450 5447 5445 5443 5440 5438 5436 5434 5433 5431 5430 5429 5428 5427
5611 5609 5607 5605 5602 5599 5597 5594 5591 5589 5587 5585 5583 5580 5578 5576 5575 5574 5571 5569 5566 5564 5562 5558 5555 5552 5549 5545 5541 5539 5537 5536 5534 5532 5529 5527 5524 5522 5520 5518 5516 5513 5511 5508 5505 5502 5500 5498 5495 5493 5490 5488 5486 5484 5482 5480 5479 5478 5476 5474 5473 5471 5469 5467 5464 5462 5459 5456 5453 5450 5448 5445 5442 5439 5437 5434 5432 5429 5427 5425 5424 5422 5421 5420 5419 5418
5606 5604 5602 5599 5596 5593 5591 5588 5585 5583 5581 5579 5577 5574 5572 5570 5568 5567 5565 5563 5561 5559 5557 5554 5550 5546 5542 5539 5536 5534 5532 5530 5528 5526 5523 5520 5517 5514 5513 5511 5508 5506 5504 5501 5498 5494 5492 5490 5488 5485 5482 5480 5479 5477 5475 5474 5472 5471 5469 5468 5466 5464 5462 5460 5458 5455 5452 5449 5446 5443 5440 5437 5434 5432 5429 5426 5424 5422 5419 5417 5415 5414 5413 5412 5411 5410
5600 5598 5595 5592 5589 5587 5584 5582 5579 5577 5574 5573 5571 5569 5566 5564 5562 5560 5559 5557 5555 5553 5551 5549 5545 5541 5536 5532 5529 5527 5526 5525 5523 5520 5518 5514 5509 5507 5506 5504 5501 5498 5496 5494 5491 5487 5484 5483 5481 5479 5476 5474 5472 5470 5469 5467 5466 5465 5464 5462 5460 5459 5456 5454 5451 5448 5445 5442 5439 5436 5434 5430 5428 5425 5422 5419 5417 5414 5412 5410 5408 5406 5405 5404 5403 5402
5594 5592 5589 5586 5583 5580 5578 5576 5573 5570 5568 5566 5565 5563 5560 5558 5556 5554 5553 5551 5548 5546 5545 5543 5539 5536 5531 5526 5523 5520 5519 5518 5517 5515 5513 5508 5503 5499 5498 5498 5495 5491 5489 5487 5485 5481 5478 5477 5475 5473 5470 5468 5466 5464 5463 5462 5460 5459 5458 5456 5454 5453 5450 5448 5445 5442 5439 5436 5433 5430 5427 5424 5421 5419 5416 5413 5411 5408 5406 5404 5401 5399 5398 5397 5395 5395
5588 5585 5582 5579 5577 5574 5572 5570 5567 5565 5562 5560 5559 5557 5555 5552 5550 5548 5547 5544 5542 5540 5538 5536 5533 5530 5525 5520 5515 5514 5514 5513 5511 5509 5508 5504 5498 5492 5491 5491 5489 5486 5483 5481 5479 5476 5473 5471 5469 5467 5465 5463 5460 5459 5458 5456 5455 5454 5453 5451 5449 5447 5445 5443 5440 5437 5434 5431 5428 5425 5422 5419 5416 5413 5410 5408 5405 5403 5400 5398 5396 5394 5392 5390 5389 5389
5582 5579 5576 5573 5571 5568 5566 5564 5561 5559 5557 5554 5552 5550 5549 5546 5544 5542 5540 5538 5535 5533 5530 5528 5526 5524 5520 5514 5508 5505 5505 5507 5506 5504 5502 5499 5493 5487 5485 5485 5484 5481 5478 5475 5473 5471 5469 5467 5464 5462 5459 5457 5455 5454 5453 5451 5450 5449 5448 5446 5444 5442 5440 5438 5435 5432 5429 5426 5423 5420 5417 5414 5411 5408 5405 5403 5400 5398 5395 5393 5391 5389 5387 5385 5384 5383
5575 5573 5570 5567 5565 5562 5560 5558 5555 5553 5550 5548 5546 5544 5541 5539 5538 5535 5533 5530 5528 5526 5523 5520 5518 5516 5514 5510 5504 5498 5497 5499 5499 5498 5495 5493 5488 5483 5480 5480 5479 5477 5474 5471 5468 5466 5464 5462 5459 5457 5454 5452 5451 5449 5448 5447 5445 5444 5442 5441 5439 5437 5435 5433 5430 5428 5425 5422 5419 5415 5412 5409 5406 5403 5401 5398 5395 5393 5391 5389 5386 5384 5383 5381 5379 5378
5569 5567 5564 5562 5559 5556 5554 5552 5549 5546 5544 5542 5539 5538 5535 5532 5530 5528 5526 5523 5520 5518 5516 5513 5511 5508 5506 5503 5498 5492 5490 5492 5493 5491 5489 5488 5484 5479 5475 5475 5474 5472 5469 5467 5464 5462 5460 5457 5455 5452 5450 5448 5446 5445 5444 5442 5440 5439 5438 5436 5434 5432 5430 5428 5426 5423 5420 5417 5414 5411 5408 5405 5402 5399 5396 5394 5391 5389 5387 5384 5383 5380 5379 5377 5376 5374
5563 5560 5558 5556 5553 5550 5547 5545 5542 5540 5537 5534 5532 5530 5528 5526 5523 5521 5518 5515 5513 5510 5508 5506 5504 5500 5497 5495 5491 5486 5484 5485 5485 5484 5483 5482 5479 5474 5471 5470 5470 5468 5465 5462 5459 5457 5455 5453 5450 5447 5445 5443 5442 5440 5439 5437 5436 5434 5433 5431 5429 5428 5426 5424 5421 5418 5416 5413 5410 5407 5404 5401 5398 5395 5392 5390 5387 5385 5383 5381 5379 5377 5375 5374 5372 5371
5557 5554 5552 5549 5547 5544 5541 5538 5535 5532 5529 5527 5525 5523 5520 5518 5516 5513 5510 5508 5505 5503 5500 5498 5496 5493 5490 5487 5484 5480 5477 5478 5479 5479 5477 5476 5474 5470 5467 5466 5466 5464 5461 5458 5455 5453 5451 5448 5445 5442 5440 5439 5437 5436 5434 5433 5431 5430 5429 5427 5425 5423 5421 5419 5416 5414 5411 5409 5406 5403 5400 5397 5394 5391 5389 5386 5384 5381 5379 5377 5375 5373 5372 5370 5369 5368
5551 5548 5545 5542 5539 5537 5534 5530 5527 5524 5521 5519 5517 5515 5512 5510 5508 5505 5502 5499 5497 5495 5493 5491 5489 5485 5483 5480 5477 5474 5471 5472 5473 5473 5472 5471 5469 5466 5463 5462 5461 5460 5458 5454 5451 5449 5446 5443 5440 5438 5436 5434 5433 5431 5430 5429 5427 5426 5424 5423 5421 5419 5416 5414 5412 5409 5407 5404 5402 5399 5396 5394 5390 5388 5385 5382 5380 5378 5375 5373 5371 5370 5368 5367 5365 5364
5544 5541 5538 5535 5532 5529 5526 5523 5520 5516 5514 5511 5509 5507 5504 5502 5500 5498 5494 5492 5490 5488 5486 5484 5481 5478 5475 5473 5470 5468 5466 5466 5466 5467 5467 5467 5465 5463 5460 5459 5457 5456 5454 5450 5448 5445 5442 5439 5436 5433 5431 5430 5429 5427 5426 5425 5423 5422 5420 5418 5416 5414 5412 5410 5408 5405 5403 5400 5398 5395 5392 5390 5387 5384 5382 5379 5376 5374 5372 5370 5368 5366 5365 5363 5362 5361
5537 5534 5531 5527 5524 5521 5518 5515 5512 5509 5506 5503 5501 5499 5496 5494 5492 5490 5487 5484 5482 5481 5479 5477 5475 5472 5469 5467 5465 5463 5461 5461 5462 5463 5463 5463 5461 5459 5456 5454 5453 5452 5449 5446 5444 5441 5438 5435 5432 5429 5428 5426 5424 5423 5422 5421 5419 5418 5416 5414 5412 5410 5408 5406 5404 5401 5399 5396 5394 5391 5389 5386 5384 5381 5378 5376 5373 5371 5369 5366 5364 5363 5361 5360 5359 5358
5530 5527 5523 5520 5517 5514 5511 5508 5505 5502 5499 5497 5494 5492 5489 5487 5484 5481 5479 5477 5475 5474 5473 5471 5469 5467 5464 5462 5460 5459 5456 5457 5458 5459 5459 5459 5457 5455 5453 5450 5449 5447 5445 5442 5440 5437 5434 5431 5429 5426 5424 5422 5420 5419 5418 5417 5415 5414 5412 5410 5408 5406 5404 5402 5399 5397 5395 5392 5390 5388 5385 5383 5380 5377 5375 5372 5370 5368 5365 5363 5361 5359 5358 5356 5355 5354
5522 5519 5516 5513 5509 5506 5504 5501 5498 5495 5492 5489 5487 5484 5481 5479 5477 5474 5472 5470 5469 5468 5467 5465 5464 5462 5460 5458 5457 5455 5453 5454 5454 5455 5456 5454 5453 5451 5448 5446 5445 5443 5441 5439 5436 5434 5431 5428 5425 5423 5421 5419 5417 5415 5414 5413 5411 5409 5408 5406 5404 5402 5400 5398 5395 5393 5391 5389 5386 5384 5381 5379 5376 5374 5372 5369 5367 5364 5362 5360 5358 5356 5354 5353 5352 5351
5514 5512 5509 5505 5503 5500 5497 5494 5491 5488 5484 5482 5479 5477 5475 5473 5471 5469 5466 5464 5463 5462 5461 5460 5459 5457 5456 5455 5453 5452 5451 5451 5451 5452 5452 5451 5449 5446 5444 5442 5440 5439 5437 5435 5433 5430 5428 5425 5422 5420 5418 5416 5414 5412 5410 5409 5408 5406 5404 5402 5400 5398 5396 5394 5392 5389 5387 5385 5383 5380 5378 5375 5373 5370 5368 5366 5364 5361 5359 5357 5355 5353 5351 5350 5349 5347
5508 5505 5502 5499 5496 5493 5490 5487 5484 5481 5478 5475 5473 5470 5469 5467 5466 5464 5461 5459 5458 5458 5456 5455 5455 5454 5453 5452 5451 5449 5449 5448 5448 5448 5448 5447 5444 5442 5440 5438 5436 5434 5434 5432 5430 5427 5424 5422 5419 5417 5415 5413 5411 5409 5407 5406 5404 5402 5400 5398 5396 5394 5392 5390 5388 5386 5384 5381 5379 5377 5374 5372 5370 5367 5365 5363 5360 5358 5356 5354 5352 5350 5348 5346 5345 5344
5502 5499 5496 5493 5490 5487 5484 5480 5477 5474 5471 5469 5467 5464 5463 5461 5460 5459 5457 5455 5455 5454 5453 5452 5452 5452 5451 5450 5449 5447 5446 5445 5445 5445 5444 5442 5440 5438 5436 5434 5432 5431 5430 5429 5427 5425 5422 5419 5416 5414 5413 5410 5408 5406 5404 5403 5401 5399 5397 5395 5393 5390 5389 5386 5384 5382 5380 5378 5376 5374 5371 5369 5367 5364 5362 5360 5357 5355 5353 5351 5349 5347 5345 5344 5342 5341
5495 5492 5489 5486 5484 5481 5478 5474 5471 5468 5465 5463 5461 5459 5458 5456 5455 5454 5453 5452 5452 5452 5451 5450 5450 5449 5449 5448 5447 5445 5443 5442 5442 5441 5440 5438 5436 5434 5433 5430 5428 5427 5426 5425 5424 5422 5419 5416 5414 5411 5409 5408 5406 5404 5402 5400 5398 5396 5394 5391 5389 5387 5385 5383 5381 5379 5377 5374 5372 5370 5368 5366 5364 5362 5359 5357 5355 5353 5350 5348 5346 5344 5342 5340 5339 5338
5488 5485 5483 5479 5477 5474 5471 5468 5465 5463 5460 5459 5457 5455 5454 5453 5452 5451 5450 5450 5450 5450 5449 5449 5448 5447 5447 5446 5444 5442 5440 5439 5438 5437 5436 5434 5433 5431 5429 5427 5425 5423 5422 5421 5420 5419 5417 5414 5412 5409 5406 5404 5403 5401 5399 5397 5395 5393 5391 5388 5386 5384 5381 5379 5377 5375 5373 5371 5369 5367 5365 5363 5361 5359 5357 5355 5353 5350 5348 5345 5343 5341 5339 5338 5336 5335
5482 5479 5476 5473 5470 5468 5465 5463 5460 5458 5456 5454 5453 5452 5451 5450 5449 5449 5449 5448 5448 5448 5448 5447 5446 5445 5444 5443 5441 5439 5438 5436 5435 5434 5433 5431 5429 5428 5426 5424 5422 5420 5419 5417 5416 5415 5414 5412 5409 5407 5404 5401 5399 5397 5395 5394 5392 5389 5388 5385 5383 5380 5378 5376 5374 5372 5370 5368 5366 5364 5362 5360 5358 5356 5354 5352 5350 5348 5345 5343 5341 5339 5337 5335 5334 5332
5475 5472 5469 5467 5464 5462 5460 5458 5456 5454 5453 5451 5450 5449 5449 5448 5448 5447 5447 5447 5446 5446 5445 5445 5444 5443 5441 5440 5439 5437 5435 5433 5432 5430 5429 5428 5426 5424 5423 5421 5419 5417 5416 5414 5413 5411 5410 5408 5406 5404 5402 5399 5396 5394 5392 5390 5389 5386 5384 5382 5380 5378 5375 5373 5371 5369 5367 5365 5363 5361 5359 5357 5355 5353 5351 5349 5348 5345 5343 5341 5339 5337 5334 5333 5331 5329
5470 5467 5464 5462 5460 5458 5456 5454 5453 5451 5450 5449 5449 5448 5447 5447 5446 5446 5446 5445 5444 5444 5443 5442 5441 5440 5439 5437 5435 5434 5432 5430 5429 5427 5426 5424 5423 5421 5419 5418 5416 5414 5413 5411 5409 5408 5406 5405 5403 5401 5399 5397 5394 5392 5389 5387 5385 5383 5381 5379 5377 5375 5373 5371 5369 5367 5364 5362 5360 5358 5356 5354 5352 5350 5349 5347 5345 5343 5341 5339 5337 5334 5333 5331 5329 5327
5466 5463 5460 5458 5456 5454 5453 5452 5450 5449 5449 5448 5447 5447 5446 5446 5445 5445 5444 5443 5443 5442 5441 5439 5439 5437 5436 5434 5433 5431 5429 5427 5425 5424 5422 5421 5419 5418 5416 5414 5413 5411 5409 5408 5406 5405 5403 5402 5400 5399 5397 5394 5392 5389 5387 5384 5382 5380 5378 5376 5374 5372 5370 5368 5366 5364 5363 5360 5358 5355 5353 5351 5349 5348 5346 5344 5342 5340 5339 5336 5334 5333 5331 5329 5327 5325
5462 5460 5458 5456 5454 5453 5451 5450 5449 5449 5448 5447 5447 5446 5445 5444 5444 5443 5442 5441 5440 5439 5438 5437 5435 5434 5433 5432 5430 5428 5427 5424 5423 5421 5419 5417 5416 5414 5413 5411 5409 5407 5406 5404 5403 5402 5400 5399 5397 5396 5394 5392 5390 5387 5385 5382 5379 5377 5375 5373 5371 5369 5368 5366 5364 5362 5360 5358 5356 5354 5351 5349 5347 5345 5343 5341 5339 5338 5336 5334 5332 5330 5329 5327 5325 5323
5460 5458 5456 5454 5453 5452 5450 5449 5449 5448 5447 5446 5446 5445 5444 5443 5442 5441 5440 5439 5438 5437 5436 5434 5433 5431 5430 5429 5427 5425 5424 5422 5420 5418 5416 5414 5412 5411 5409 5408 5406 5404 5402 5401 5399 5398 5397 5396 5394 5393 5391 5389 5387 5385 5383 5380 5378 5375 5373 5371 5369 5367 5365 5363 5362 5360 5358 5356 5354 5352 5349 5347 5345 5343 5341 5339 5337 5335 5334 5332 5330 5328 5327 5325 5323 5322
5458 5456 5454 5453 5452 5451 5450 5449 5448 5447 5446 5445 5444 5444 5443 5442 5441 5439 5439 5437 5436 5435 5433 5432 5430 5429 5427 5425 5424 5422 5421 5419 5417 5414 5413 5411 5409 5407 5406 5404 5402 5401 5399 5398 5396 5395 5394 5393 5391 5390 5389 5387 5385 5383 5380 5378 5376 5374 5371 5369 5366 5364 5362 5360 5359 5358 5356 5354 5352 5350 5348 5345 5343 5341 5339 5337 5335 5333 5331 5329 5328 5326 5324 5323 5322 5320
5457 5455 5454 5453 5452 5450 5449 5449 5447 5446 5445 5444 5443 5442 5441 5440 5439 5438 5436 5435 5434 5432 5431 5429 5428 5426 5424 5423 5421 5419 5418 5416 5414 5411 5409 5407 5405 5404 5402 5401 5399 5398 5396 5394 5393 5392 5390 5389 5388 5387 5385 5384 5382 5380 5378 5375 5373 5371 5369 5367 5365 5362 5360 5358 5356 5355 5353 5351 5349 5348 5345 5344 5341 5339 5337 5335 5334 5331 5329 5328 5326 5324 5323 5321 5320 5319
5456 5455 5454 5452 5451 5450 5449 5448 5446 5445 5444 5443 5442 5441 5439 5438 5437 5435 5434 5433 5432 5430 5429 5427 5425 5423 5421 5420 5418 5416 5414 5412 5410 5408 5406 5404 5402 5401 5399 5398 5396 5394 5393 5392 5390 5389 5388 5386 5385 5384 5382 5381 5379 5377 5375 5373 5370 5369 5367 5365 5363 5361 5358 5355 5354 5352 5350 5349 5347 5345 5343 5341 5339 5337 5335 5334 5332 5330 5328 5326 5324 5323 5321 5319 5318 5317
5455 5454 5453 5452 5450 5449 5448 5446 5445 5444 5443 5442 5440 5439 5438 5436 5435 5434 5432 5431 5429 5428 5426 5424 5423 5421 5419 5417 5415 5413 5411 5409 5407 5405 5403 5401 5399 5398 5396 5394 5393 5392 5390 5389 5388 5386 5385 5383 5382 5380 5379 5378 5376 5374 5372 5370 5368 5366 5364 5362 5361 5359 5357 5354 5351 5349 5347 5345 5344 5342 5340 5339 5337 5335 5333 5331 5329 5328 5326 5324 5323 5321 5319 5318 5317 5315
5455 5454 5452 5451 5449 5448 5447 5445 5444 5443 5442 5440 5439 5438 5436 5435 5433 5432 5430 5429 5427 5425 5424 5422 5420 5418 5416 5414 5412 5410 5408 5406 5404 5402 5400 5399 5397 5395 5393 5392 5390 5389 5388 5387 5385 5384 5382 5380 5379 5377 5376 5374 5373 5371 5369 5368 5365 5363 5361 5359 5358 5356 5354 5352 5349 5346 5344 5342 5340 5339 5337 5335 5334 5332 5330 5329 5327 5325 5324 5322 5321 5319 5318 5316 5315 5314
5454 5453 5451 5450 5448 5447 5445 5444 5443 5441 5440 5439 5437 5436 5434 5433 5431 5430 5428 5427 5425 5423 5421 5420 5418 5416 5414 5412 5410 5408 5405 5404 5402 5400 5398 5396 5394 5392 5391 5389 5388 5386 5385 5384 5383 5381 5380 5378 5376 5374 5373 5372 5370 5368 5366 5365 5363 5361 5359 5357 5355 5353 5351 5349 5347 5344 5342 5339 5338 5335 5334 5332 5331 5329 5328 5326 5324 5323 5321 5320 5319 5317 5316 5315 5314 5313
5453 5451 5450 5448 5447 5445 5444 5443 5441 5440 5438 5437 5435 5434 5432 5431 5429 5428 5426 5424 5423 5421 5419 5417 5415 5414 5412 5410 5408 5406 5404 5401 5399 5397 5395 5394 5392 5390 5388 5387 5385 5384 5382 5381 5380 5379 5377 5376 5374 5372 5370 5369 5367 5365 5364 5362 5360 5358 5356 5354 5352 5350 5348 5346 5344 5342 5339 5337 5335 5333 5331 5329 5328 5326 5325 5323 5322 5320 5319 5317 5316 5315 5314 5313 5312 5311
5451 5450 5449 5447 5445 5444 5443 5441 5439 5438 5437 5435 5434 5432 5430 5429 5427 5425 5424 5422 5420 5419 5417 5415 5413 5411 5409 5408 5406 5404 5402 5399 5397 5395 5393 5391 5389 5388 5386 5384 5383 5381 5380 5378 5377 5375 5374 5373 5371 5369 5368 5366 5364 5362 5360 5359 5357 5356 5354 5352 5349 5348 5345 5343 5341 5339 5337 5335 5333 5331 5329 5327 5325 5324 5323 5321 5319 5318 5316 5315 5314 5313 5311 5310 5310 5309
5450 5449 5447 5446 5444 5443 5441 5439 5438 5436 5434 5433 5431 5430 5428 5426 5424 5423 5421 5419 5418 5416 5414 5412 5411 5409 5407 5405 5404 5402 5400 5398 5396 5394 5391 5389 5387 5385 5384 5382 5380 5379 5377 5376 5374 5373 5371 5370 5368 5367 5365 5364 5362 5359 5357 5355 5354 5353 5351 5349 5347 5345 5343 5341 5339 5336 5334 5333 5331 5329 5327 5325 5323 5322 5320 5319 5317 5315 5314 5312 5311 5310 5309 5308 5308 5307
5449 5447 5446 5444 5443 5441 5439 5438 5436 5434 5433 5431 5429 5427 5425 5424 5422 5420 5419 5417 5415 5413 5411 5410 5408 5406 5405 5403 5402 5400 5398 5396 5394 5393 5390 5388 5386 5384 5382 5380 5378 5377 5375 5374 5372 5370 5369 5367 5365 5364 5362 5360 5359 5357 5355 5353 5351 5349 5348 5346 5344 5343 5341 5339 5336 5334 5332 5330 5329 5327 5325 5323 5322 5320 5318 5317 5315 5314 5312 5310 5309 5307 5306 5306 5305 5305
5448 5446 5444 5443 5441 5439 5438 5436 5434 5432 5430 5429 5427 5425 5423 5421 5419 5418 5416 5414 5412 5411 5409 5407 5406 5404 5402 5401 5399 5398 5396 5394 5393 5391 5389 5387 5384 5382 5380 5378 5376 5374 5373 5371 5370 5368 5366 5364 5362 5360 5359 5357 5355 5354 5352 5350 5349 5347 5345 5344 5342 5340 5339 5337 5335 5333 5330 5329 5327 5325 5323 5321 5320 5318 5317 5315 5314 5312 5310 5308 5306 5305 5304 5303 5303 5303
5446 5444 5443 5441 5439 5438 5436 5434 5432 5430 5428 5426 5424 5422 5420 5418 5417 5415 5413 5411 5409 5408 5406 5405 5403 5402 5400 5399 5397 5395 5394 5392 5390 5389 5387 5385 5383 5381 5379 5377 5375 5373 5372 5370 5368 5366 5364 5362 5360 5357 5355 5353 5352 5350 5349 5348 5346 5344 5343 5341 5339 5338 5336 5335 5333 5331 5329 5327 5325 5323 5321 5320 5318 5316 5315 5313 5312 5310 5308 5306 5304 5303 5301 5301 5300 5300
5444 5443 5441 5439 5438 5436 5434 5432 5430 5428 5426 5424 5422 5420 5418 5416 5414 5412 5410 5409 5407 5405 5404 5402 5401 5399 5398 5396 5395 5393 5391 5389 5388 5386 5384 5382 5380 5379 5377 5375 5373 5372 5370 5369 5367 5365 5363 5361 5359 5355 5352 5349 5348 5346 5346 5345 5344 5342 5341 5339 5337 5336 5334 5333 5331 5329 5327 5325 5323 5321 5319 5318 5316 5314 5313 5311 5310 5308 5306 5304 5303 5301 5299 5299 5298 5298
5443 5441 5439 5438 5436 5434 5432 5430 5428 5426 5424 5422 5420 5418 5415 5414 5411 5410 5408 5406 5405 5403 5402 5400 5399 5397 5395 5394 5393 5391 5389 5387 5385 5384 5382 5380 5378 5376 5374 5373 5371 5369 5368 5367 5365 5364 5362 5360 5358 5355 5351 5348 5344 5343 5342 5341 5340 5339 5339 5337 5335 5334 5332 5330 5329 5327 5325 5323 5321 5319 5317 5316 5314 5312 5311 5309 5308 5306 5304 5303 5301 5299 5298 5297 5296 5296